Location: Anumalkud?ru
(16.4847°N, 80.6636°E)
Time: 12:17:37
(UTC+00:00)

Daily predictions for brighter satellites

Satellite Brightness Start Highest point End
(mag) Time Altitude Azimuth Time Altitude Azimuth Time Altitude Azimuth
CZ-3B Rocket 4.1 12:40:56 10° W 12:46:42 79° N 22:21:24 10° SE
SJ-12 4.3 13:05:34 10° S 13:09:15 62° W 13:12:57 10° NNW
ASC 2 Rocket 3.4 13:04:15 10° WSW 13:09:59 65° SSE 13:14:14 10° ENE
CZ-4 R/B 4.3 13:06:39 10° SSE 13:10:34 89° WSW 13:14:29 10° NNW
Nadezhda 1 Rocket 4.0 13:05:36 10° N 13:11:40 84° E 13:17:44 10° S
H-2A R/B 4.0 12:51:53 10° WNW 13:12:46 58° SW 13:16:36 10° SE
Cosmos 773 Rocket 4.0 13:08:35 10° N 13:13:36 57° ENE 13:18:38 10° SSE
Cosmos 1953 3.2 13:11:21 10° SE 13:14:13 23° E 13:17:06 10° NE
SEDSat Delta rocket 4.2 13:10:12 10° NW 13:16:32 54° NNE 13:22:21 10° E
COBE Rocket 4.3 13:11:49 10° NNE 13:16:38 44° E 13:21:29 10° S
Okean 3 3.3 13:16:20 10° N 13:20:18 64° E 13:24:15 10° SSE
Okean 2 4.2 13:16:59 10° NNW 13:20:42 52° W 13:24:23 10° S
Geosat 4.3 13:20:12 10° NE 13:24:56 44° ESE 13:29:39 10° S
Cosmos 2184 Rocket 4.4 13:22:22 10° SSE 13:28:14 40° E 13:34:06 10° NNE
Spot 4 Rocket 4.3 13:23:53 10° SSE 13:28:45 48° ENE 13:33:38 10° N
SJ-6B 4.1 13:26:31 11° ESE 13:28:55 18° ENE 13:31:29 10° NNE
Cosmos 2360 Rocket 3.0 13:24:21 10° SSW 13:29:50 57° WNW 13:35:21 10° N
Aureole 1 Rocket 3.8 13:26:33 10° SSW 13:30:47 49° WNW 13:34:12 10° N
CZ-2D R/B 3.4 13:27:53 10° SSE 13:31:57 59° ENE 13:35:57 10° N
Lacrosse 5 rocket 3.2 13:34:08 10° WSW 13:36:56 25° NW 13:39:39 10° N
Cosmos 2322 Rocket 3.6 13:32:22 10° SW 13:37:38 42° WNW 13:42:54 10° N
Cosmos 2208 Rocket 4.1 13:36:34 10° NNW 13:41:47 80° WSW 13:46:55 10° S
Cosmos 1844 Rocket 3.5 13:38:56 10° N 13:43:44 29° ENE 13:46:42 19° ESE
CARTOSAT-1 3.6 13:40:40 10° S 13:44:50 76° WSW 13:49:01 10° NNW
SAR-Lupe-1 4.2 13:41:37 10° S 13:45:08 73° WSW 13:48:40 10° NNW
Okean 1-7 3.9 13:43:04 10° NNE 13:46:26 24° E 13:47:19 23° ESE
Meteor 1-22 Rocket 4.4 13:43:03 10° SSW 13:48:26 74° W 13:54:02 10° N
Cosmos 1862 Rocket 4.3 13:46:01 10° NNE 13:49:55 31° E 13:51:47 22° SE
Cosmos 1707 Rocket 4.3 13:46:50 10° NNE 13:50:32 29° E 13:51:42 25° ESE
Cosmos 2082 3.9 13:46:23 10° NNW 13:51:57 71° WSW 13:57:30 10° S
Cosmos 2322 4.2 13:48:16 10° SSE 13:53:22 35° ESE 13:58:29 10° NE
Cosmos 1328 4.1 13:50:35 10° NNE 13:53:47 33° E 13:54:09 32° E
Cosmos 1666 Rocket 4.0 13:50:31 10° SSW 13:54:43 61° W 13:58:56 10° N
Cosmos 1898 Rocket 4.0 13:50:31 10° SSW 13:55:43 62° WNW 14:00:54 10° N
Cosmos 1633 Rocket 3.2 13:51:36 10° S 13:55:58 77° W 14:00:19 10° N
GPS 2-15 Rocket1 3.0 13:51:27 10° W 13:56:02 78° SSW 13:58:12 30° ESE
YAOGAN 1 4.4 13:53:16 10° SSW 13:57:01 31° W 14:00:47 10° NW
NOSS 2-2 (C) 4.5 13:51:58 10° NNW 13:57:11 61° ENE 14:03:07 16° SE
Atlas Centaur 2 3.6 13:52:04 10° NW 13:57:17 31° NNE 14:01:25 18° ENE
Cosmos 2228 Rocket 4.2 13:55:37 10° NNE 13:58:47 25° ENE 13:58:47 25° ENE
ATLAS 2AS CENTAUR RB 4.4 13:49:09 10° W 13:59:52 19° SW 14:04:05 10° S
GPS 2-17 Rocket1 3.5 13:55:30 10° WNW 13:59:58 51° N 14:02:16 26° ENE
Cosmos 2074 Rocket 3.9 13:53:58 10° S 14:00:10 87° E 14:06:24 10° N
NATO 3D Rocket 4.2 13:55:11 10° WNW 14:01:01 77° SSW 14:05:49 26° ESE
Meteor 2-13 Rocket 4.4 13:55:46 10° N 14:01:54 74° E 14:08:02 10° S
CENTAUR R/B 3.6 13:55:24 10° NNW 14:04:24 54° ENE 14:10:30 23° SE
Lacrosse 4 Rocket 3.8 14:02:50 10° NW 14:06:03 22° WSW 14:09:17 10° SSW
CZ-3C R/B 3.9 14:01:50 10° W 14:06:26 46° S 21:31:55 10° ESE
Cosmos 2219 Rocket 3.4 14:01:12 10° SW 14:06:29 44° WNW 14:11:46 10° N
Resurs 01 Rocket 2.2 14:02:22 10° S 14:06:41 58° W 14:10:59 10° NNW
Helios 1A Rocket 2.1 14:05:05 10° NNE 14:08:17 82° ESE 14:11:28 10° S
PSLV R/B 4.0 14:05:26 10° S 14:09:22 57° W 14:13:19 10° NNW
SPOT 5 3.3 14:14:56 41° E 14:15:11 41° ENE 14:19:40 10° N
Meteor 1-24 Rocket 3.9 14:11:14 10° N 14:16:37 48° E 14:18:03 39° SE
ATLAS 2A CENTAUR R/B 2.3 14:13:40 10° W 14:16:48 32° NNW 14:16:51 32° NNW
Cosmos 1937 Rocket 4.4 14:12:29 10° SSW 14:17:35 51° WNW 14:22:43 10° N
Cosmos 1844 3.7 14:13:59 10° N 14:19:43 65° ENE 14:21:46 39° SE
Centaur D-1AR AC-46 4.0 14:17:55 10° WNW 14:22:34 88° SSW 14:23:10 62° ESE
COSMOS 2428 2.6 14:17:13 10° S 14:22:49 62° ESE 14:28:27 10° NNE
IRAS Rocket 4.5 14:23:48 45° E 14:24:02 45° ENE 14:29:14 10° N
Cosmos 1610 Rocket 4.4 14:18:45 10° S 14:25:06 81° E 14:31:24 10° N
Delta 198 3.2 14:23:45 10° WNW 14:27:19 70° WNW 14:27:19 70° WNW
OAO 3 Rocket 3.0 14:23:08 10° SW 14:27:49 89° SSE 14:28:21 70° ENE
CSL-04 Rocket 3.7 14:27:47 53° E 14:28:12 54° ENE 14:33:34 10° N
Cosmos 2227 4.2 14:24:48 10° NNW 14:30:33 81° WSW 14:33:09 34° S
Milstar 3 4.2 14:26:55 10° SSW 14:32:49 29° SSE 14:32:49 29° SSE
Maqsat-H 3.6 14:31:06 10° WSW 14:35:35 40° S 14:37:40 35° SE
Yuri Rocket 3.6 14:45:36 10° WNW 14:49:20 63° W 14:49:20 63° W
Nadezhda 3 Rocket 3.9 14:53:23 10° N 14:59:29 83° W 14:59:29 83° W
Meteor 2-5 Rocket 3.9 14:55:12 10° NNW 15:00:41 65° W 15:00:43 65° W
SEDSat Delta rocket 4.5 14:56:45 10° WNW 15:02:09 42° SW 15:02:09 42° SW
Atlas Centaur 2 3.8 15:39:36 10° WNW 15:43:18 38° NW 15:43:18 38° NW
CZ-3 R/B 4.1 20:05:53 10° WSW 21:00:46 78° NNW 21:13:07 10° ENE
ARIANE 5 R/B 4.5 22:06:52 27° SSE 22:06:52 27° SSE 22:17:37 10° ESE
Cosmos 1980 Rocket 4.4 22:03:38 10° N 22:15:06 - SSE 22:04:22 14° N
ARGOS 4.3 22:05:30 10° N 22:08:32 35° N 22:08:32 35° N
Cosmos 540 Rocket 3.8 22:23:08 58° NNE 22:23:08 58° NNE 22:27:15 10° NNE
CZ-2C R/B 3.1 22:18:21 10° NNE 22:23:02 49° E 22:23:39 46° SE
Aurora 2 Rocket 4.5 22:31:18 31° NW 22:34:12 42° N 22:40:08 10° ENE
Ariane H10-3 4.5 22:33:38 18° S 22:37:13 25° SSE 22:58:01 10° E
Meteor 2-4 Rocket 4.1 22:33:20 19° S 22:37:19 62° E 22:42:43 10° NNE
Meteor 2-9 Rocket 4.1 22:33:01 10° N 22:38:20 78° E 22:43:38 10° S
ATLAS 3B R/B 3.3 22:32:53 10° NNW 22:40:12 60° ENE 22:46:56 10° SE
USA 234 3.1 22:34:16 10° SE 22:40:48 81° SW 22:47:21 10° NW
USA 229 DEB 4.1 22:34:08 10° NNW 22:42:22 87° ENE 22:50:52 10° SSE
USA 229 4.2 22:34:12 10° NNW 22:42:26 85° ENE 22:50:56 10° SSE
SL-16 R/B 2.9 22:38:26 10° SSE 22:44:35 67° ENE 22:50:45 10° N
PAYLOAD A 3.8 22:42:38 10° NNE 22:47:21 79° ESE 22:49:21 34° S
H-2A R/B 4.5 22:44:17 10° NNW 22:44:20 10° NNW 22:44:20 10° NNW
SL-16 R/B 4.3 22:48:14 10° NNE 22:52:56 27° ENE 22:57:37 10° SE
Cosmos 1655 Rocket 4.3 22:51:30 10° N 22:57:40 68° E 23:03:49 10° SSE
Meteor 1-14 Rocket 4.3 22:56:44 10° NNW 23:02:12 49° W 23:07:34 10° SSW
Cosmos 1066 Rocket 4.2 22:59:48 10° S 23:05:23 81° E 23:10:50 10° N
Meteor 1-11 Rocket 3.7 22:59:40 10° N 23:05:33 88° W 23:11:18 10° S
OAO 3 Rocket 3.0 23:05:24 33° WNW 23:07:34 80° SSW 23:12:20 10° SE
IUS-1 SRM-2 4.4 23:05:45 14° S 23:08:01 23° SE 23:14:33 10° E
SJ-11-01 4.1 23:09:34 10° N 23:14:10 69° WNW 23:18:45 10° SSW
Hubble Space Telescope 3.1 23:16:25 10° NNW 23:18:15 13° N 23:20:06 10° NNE
Cosmos 468 Rocket 4.3 23:17:18 23° SW 23:20:10 44° WNW 23:25:09 10° N
OAO 2 Rocket 4.0 23:18:37 10° NW 23:23:21 51° NNE 23:28:08 10° ESE
USA 215 4.2 23:18:19 10° NE 23:24:32 45° SE 23:30:44 10° SSW
SL-14 R/B 3.6 23:22:26 10° S 23:26:13 65° E 23:30:01 10° NNE
Cosmos 1777 Rocket 4.0 23:25:35 10° NNW 23:30:50 90° W 23:36:02 10° SSE
USA 290 4.0 23:31:37 17° WNW 23:31:37 17° WNW 23:33:14 10° NNW
Lacrosse 5 rocket 0.6 23:28:04 10° NW 23:31:24 73° WSW 23:34:50 10° SSE
Cosmos 1842 Rocket 4.1 23:30:21 10° SSW 23:34:18 36° W 23:38:14 10° NNW
ARIANE 5 R/B 3.0 23:32:41 14° SW 23:34:31 20° S 23:37:22 10° SE
ARIANE 6 FM1 Upper Stage 2.5 23:35:10 10° NW 23:39:04 59° WSW 23:43:03 10° SSE
GPS 2-12 Rocket1 3.8 23:36:19 14° SW 23:39:36 38° SSE 23:43:34 10° E
Cosmos 2369 4.5 23:35:42 10° NW 23:40:30 29° WSW 23:45:20 10° SSW
Cosmos 2333 Rocket 2.5 23:36:53 10° NNW 23:42:32 72° ENE 23:48:11 10° SSE
Meteor 1-28 Rocket 3.2 23:43:53 10° S 23:46:58 39° W 23:50:04 10° NNW
Cosmos 1461 2.5 23:48:39 10° SSW 23:52:21 81° WNW 23:56:06 10° NNE
UNK 3.8 23:50:05 10° S 23:54:35 56° W 23:59:05 10° NNW
